This is the latest recevied weather packets stored in our database for station/object PP5EO-15. If no packets are shown the sender has not sent any weather packets the latest 10 day(s).
| Time | Temp. | Humidity | Pressure | Rain* | Wind** | Luminosity | Snow |
|---|---|---|---|---|---|---|---|
| 1777329574 | 31.11° C | 46% | 1013.1 hPa | - | - | - | - |
| 1777328980 | 31.67° C | 45% | 1013 hPa | - | - | - | - |
| 1777328384 | 32.22° C | 43% | 1012.7 hPa | - | - | - | - |
| 1777327789 | 32.78° C | 41% | 1012.5 hPa | - | - | - | - |
| 1777327194 | 33.33° C | 40% | 1012.2 hPa | - | - | - | - |
| 1777326169 | 32.22° C | 41% | 1011.8 hPa | - | - | - | - |
| 1777325574 | 32.78° C | 41% | 1011.8 hPa | - | - | - | - |
| 1777324980 | 33.33° C | 39% | 1011.7 hPa | - | - | - | - |
| 1777324384 | 33.89° C | 37% | 1011.5 hPa | - | - | - | - |
| 1777323790 | 34.44° C | 36% | 1011.3 hPa | - | - | - | - |
| 1777323195 | 35° C | 34% | 1011.1 hPa | - | - | - | - |
| 1777322600 | 35.56° C | 32% | 1011 hPa | - | - | - | - |
| 1777322004 | 36.67° C | 30% | 1011 hPa | - | - | - | - |
| 1777321409 | 37.78° C | 28% | 1010.8 hPa | - | - | - | - |
| 1777320814 | 38.89° C | 24% | 1010.7 hPa | - | - | - | - |
| 1777320219 | 39.44° C | 21% | 1010.7 hPa | - | - | - | - |
| 1777319626 | 39.44° C | 21% | 1010.6 hPa | - | - | - | - |
| 1777319029 | 39.44° C | 21% | 1010.5 hPa | - | - | - | - |
| 1777318434 | 39.44° C | 21% | 1010.4 hPa | - | - | - | - |
| 1777317839 | 40° C | 20% | 1010.3 hPa | - | - | - | - |
| 1777317244 | 40.56° C | 19% | 1010.2 hPa | - | - | - | - |
| 1777316649 | 41.11° C | 18% | 1010.1 hPa | - | - | - | - |
| 1777316054 | 41.67° C | 18% | 1010 hPa | - | - | - | - |
| 1777315460 | 41.67° C | 19% | 1009.9 hPa | - | - | - | - |
| 1777314864 | 41.67° C | 19% | 1009.9 hPa | - | - | - | - |
* Rain since midnight (hover to see other rain measurements)
** Current wind speed in m/s (hover to see current wind gust speed)